Location: Newark
(42.9858°N, 0.6717°E)
Time: 08:15:27
(UTC+00:00)

S-56A Canister/Altair - Pass Details

Date: 26 November 2019
Orbit: 633 x 2499 km, 38.9° (Epoch: 10 December)

Event Time Altitude Azimuth Distance (km) Brightness Sun altitude
Rises 17:40:09 0° 270° (W) 5,463 13.5 -13.3°
Reaches altitude 10° 17:44:13 10° 268° (W) 4,190 12.6 -14.1°
Maximum altitude 17:54:36 65° 191° (S) 1,443 8.9 -15.9°
Enters shadow 18:00:09 17° 113° (ESE) 2,401 9.6 -16.9°
Drops below altitude 10° 18:01:20 10° 111° (ESE) 2,782 - -17.1°
Sets 18:03:32 0° 108° (ESE) 3,548 - -17.5°
